Regional Weather Roundup
Issued by NWS State College, PA

Home | Current Version | Previous Version | Graphics & Text | Print | Product List | Glossary On
Versions: 1 2 3 4 5 6 7 8 9 10 11 12 13 14 15 16 17 18 19 20 21 22 23 24 25 26 27 28 29 30 31 32 33 34 35 36 37 38 39 40 41 42 43 44 45 46 47 48 49 50
000
ASUS41 KCTP 240910
RWRCTP

REGIONAL WEATHER ROUNDUP
NATIONAL WEATHER SERVICE STATE COLLEGE PA
500 AM EDT FRI OCT 24 2014

Note: "fair" indicates few or no clouds below 12,000 feet with no
significant weather and/or obstructions to visibility.

* = STATION THAT DOES NOT REPORT PRECIPITATION /E.G. RAIN...SNOW...ETC/
    THUNDER OR FOG.

PAZ002>004-007>009-013>016-020>023-029>032-241000-
WESTERN PENNSYLVANIA

CITY           SKY/WX    TMP DP  RH WIND       PRES   REMARKS
ERIE           CLEAR     40  37  89 SW5       30.07S
MEADVILLE      CLEAR     42  40  92 W7        30.06S
FRANKLIN*      CLOUDY    43  39  87 W3        30.07S VSB 1/2
NEW CASTLE       N/A     34  34 100 CALM      30.09S FOG
BEAVER COUNTY  NOT AVBL
BUTLER*        PTCLDY    39  37  93 CALM      30.08S
PITTSBURGH INT MOCLDY    40  38  93 W5        30.07F
PITTSBURGH     CLEAR     42  37  82 NW5       30.06F
INDIANA*       CLOUDY    46  43  87 NW5       30.09R
LATROBE        NOT AVBL
WASHINGTON CO* PTCLDY    34  28  80 CALM      30.09S
$$

PAZ004>006-010>012-017>019-024>028-033>037-041-042-045-046-049>053-241000-
CENTRAL PENNSYLVANIA

CITY           SKY/WX    TMP DP  RH WIND       PRES   REMARKS
BRADFORD       CLEAR     39  36  89 W6        30.01R
DUBOIS         CLOUDY    45  43  93 NW9       30.02R
CLEARFIELD     CLEAR     46  40  79 W3        30.03R
JOHNSTOWN      CLOUDY    43  40  89 NW9       30.02R
ALTOONA        CLOUDY    48  42  80 CALM      30.01R
STATE COLLEGE  PTCLDY    48  40  75 CALM      29.99R
WILLIAMSPORT   CLOUDY    55  43  63 W8        29.92R
SELINSGROVE    CLOUDY    56  43  61 N5        29.93R
FT INDIANTOWN  MOCLDY    56  46  69 N8G18     29.89R
CAPITAL CITY   CLOUDY    57  43  59 W10       29.92R
HARRISBURG     MOCLDY    56  42  59 NW14      29.90R
YORK           CLOUDY    55  43  63 NW14      29.91R
$$

PAZ038>040-043-044-047-048-054-055-060>062-067>071-241000-
EASTERN PENNSYLVANIA

CITY           SKY/WX    TMP DP  RH WIND       PRES   REMARKS
SCRANTON       CLOUDY    51  43  74 NW10      29.87S
MOUNT POCONO   CLOUDY    46  42  86 NW24G36   29.80F
ALLENTOWN      CLOUDY    54  43  66 NW13G20   29.85R
QUAKERTOWN*    CLOUDY    54  45  71 N12G17    29.85R
READING        CLOUDY    56  44  64 N14G23    29.86S
LANCASTER      MOCLDY    55  42  61 NW12      29.88S
COATESVILLE    CLOUDY    55  46  71 NW13G23   29.86S
POTTSTOWN      CLOUDY    55  44  66 NW15      29.86R
BLUE BELL      CLOUDY    55  46  71 NW7       29.83S
DOYLESTOWN     CLOUDY    52  45  77 NW9G21    29.83R
WILLOW GROVE   NOT AVBL
NORTH PHILA    CLOUDY    56  44  64 NW7       29.85R
PHILADELPHIA   CLOUDY    57  44  62 NW10      29.85R
$$



USA.gov is the U.S. government's official web portal to all federal, state and local government web resources and services.